Theta_e
287 284 283 283 285 286 286 287 287 285 285 281 280 282 285 284 282 281 284 281 281 283 284 283 284 285 284 283 283 283 283 282 281 281 281 281 281 280 280 280 280 280 280 279 279 279 279 279 279 279 279 277 276 276 276 276 275 276 276 275 274 274 273 273 273 273 273 272 272 271 271 270 269 269 268 268 267 267 267 267 267 267 267 267 266 266 266
287 284 283 284 284 283 281 281 283 284 283 281 282 283 285 285 284 285 282 280 282 284 281 284 285 285 283 283 283 282 282 281 281 281 281 281 281 281 280 280 280 280 280 280 280 279 278 279 279 278 277 277 277 277 276 275 275 274 275 274 274 273 273 272 272 272 271 271 270 270 269 268 267 266 266 266 266 265 265 265 265 266 265 265 265 265 265
280 279 279 280 280 281 281 283 283 282 279 280 282 283 281 280 281 281 281 281 281 283 282 283 281 281 282 283 281 281 280 280 281 281 281 281 281 281 281 280 280 280 280 280 279 278 279 278 279 278 278 277 276 276 275 274 274 274 274 273 272 272 272 271 271 270 269 268 268 267 267 266 264 264 265 263 262 263 262 263 263 264 264 264 264 264 264
279 277 279 278 278 278 279 281 283 279 279 277 278 277 280 280 280 281 279 279 281 284 280 282 281 280 281 282 283 280 280 279 279 280 281 281 281 280 281 281 280 279 279 279 278 279 279 278 278 278 277 276 276 276 274 274 274 273 272 272 271 270 270 270 269 268 268 267 266 265 265 264 263 262 262 261 261 261 261 262 263 262 263 263 263 263 263
280 276 279 278 278 279 278 280 281 281 281 282 279 280 280 283 284 279 278 280 285 281 279 280 281 280 280 280 279 280 280 279 279 280 281 281 281 281 281 281 280 280 279 279 279 279 278 278 278 278 277 276 276 275 274 274 272 271 271 270 270 269 269 268 267 267 266 264 263 262 262 262 261 260 260 261 260 260 260 260 261 261 262 262 262 263 263
275 272 275 277 276 272 276 283 285 283 281 281 278 280 281 281 283 280 284 281 278 275 277 279 280 279 278 280 281 281 282 280 278 279 279 280 281 281 281 280 280 279 279 279 279 279 279 279 278 277 277 277 276 275 274 272 271 270 270 269 268 268 267 266 266 266 264 262 262 262 261 261 261 260 259 259 259 260 260 261 261 261 260 261 261 261 262
272 273 275 273 269 274 281 277 279 282 284 283 282 282 283 281 280 281 279 278 278 279 280 280 280 278 278 277 277 276 278 279 280 280 280 280 280 280 280 278 278 278 279 278 278 277 277 277 276 276 275 275 274 272 272 270 269 269 268 268 267 267 265 265 264 263 264 262 261 261 261 260 259 259 259 259 260 260 259 261 260 260 260 259 260 260 260
274 271 275 270 272 279 277 276 276 277 277 277 276 274 276 276 278 279 278 279 280 281 280 278 277 277 276 274 274 275 276 279 281 280 280 280 280 279 279 279 278 278 278 278 278 278 277 276 275 276 275 273 272 271 269 269 268 267 266 266 266 265 264 264 263 264 262 261 261 260 261 259 258 260 259 258 259 259 259 259 258 259 259 259 259 259 260
271 274 274 277 279 278 278 273 275 276 275 274 274 271 275 279 278 277 277 278 279 280 278 278 274 273 275 276 279 275 275 276 279 280 281 280 279 280 280 279 279 279 279 279 278 277 275 276 275 275 273 272 271 269 268 266 266 265 265 264 265 265 263 263 263 262 263 261 260 259 259 259 257 258 259 258 258 258 258 259 259 258 258 258 259 259 259
277 271 272 271 272 272 278 280 278 278 278 278 278 276 270 274 270 277 277 277 278 277 276 274 272 274 276 275 278 277 276 275 276 276 278 276 277 278 278 277 277 277 276 276 275 276 275 274 273 272 271 270 269 268 267 265 265 265 264 265 264 263 263 262 263 262 262 259 260 258 258 257 257 259 258 257 257 257 258 258 258 257 258 258 258 258 258
274 273 272 272 271 275 278 275 274 273 274 277 274 271 268 273 271 277 277 277 278 277 277 272 274 273 269 273 277 278 276 275 274 275 275 276 275 276 276 277 277 276 276 275 275 273 273 272 271 270 269 268 268 267 266 265 265 264 264 264 264 263 263 262 262 260 260 259 259 258 257 258 257 257 256 256 257 256 257 256 257 257 257 257 257 257 258
277 274 272 272 276 273 274 271 272 273 275 278 276 264 264 270 273 276 278 278 277 276 275 273 274 274 268 273 277 276 277 276 275 275 276 275 275 274 274 274 275 275 274 272 272 272 272 272 269 267 267 268 267 267 265 264 264 264 265 264 264 263 263 262 261 259 259 259 259 257 258 257 256 256 256 256 256 256 256 256 256 256 257 257 256 257 257
277 278 274 273 273 278 273 273 274 274 275 275 267 268 270 273 274 275 278 277 278 276 273 274 272 276 278 278 278 274 274 275 275 275 275 276 275 275 275 275 277 274 274 275 275 274 274 271 267 267 267 267 267 265 264 264 264 265 264 263 262 262 262 260 258 258 258 257 256 256 256 255 256 255 255 257 256 255 256 256 255 256 256 256 256 257 257
275 276 274 274 277 280 276 276 276 277 276 266 270 276 276 276 275 275 277 277 276 274 275 275 277 278 279 276 275 274 274 276 275 275 275 275 275 274 274 275 274 273 273 272 271 270 269 268 267 266 267 268 267 264 264 265 265 264 263 262 262 260 259 259 258 257 256 255 256 255 254 254 254 255 254 254 255 255 255 255 255 255 255 256 256 256 257
273 272 272 270 268 278 277 277 275 277 272 273 277 274 275 276 277 275 274 276 275 275 275 276 277 277 274 274 275 275 274 273 275 275 274 274 275 274 273 273 273 273 272 272 272 272 268 267 266 266 266 267 265 264 265 266 264 262 262 261 261 260 258 257 256 255 254 254 254 254 254 254 254 254 254 253 253 254 254 254 254 254 254 255 255 256 256
268 272 269 270 278 277 279 279 275 276 279 277 276 277 276 275 274 275 275 275 275 275 277 276 275 275 274 273 273 273 273 273 274 273 273 273 273 273 273 273 273 272 273 273 272 269 267 266 266 266 266 267 265 264 266 264 262 261 261 260 259 258 256 255 254 254 253 253 253 252 252 253 252 253 253 253 253 252 254 254 254 254 255 255 255 255 255
272 270 276 276 276 278 280 280 278 280 280 276 277 277 278 277 275 274 274 276 276 275 276 275 275 274 274 275 275 274 275 275 274 274 274 275 275 275 275 274 273 272 274 272 271 268 266 265 265 265 265 267 264 264 264 262 262 260 259 258 257 255 254 253 252 252 251 251 251 250 252 252 252 253 253 251 253 253 253 254 254 254 254 254 254 255 256
275 275 276 275 274 276 278 279 277 279 278 276 275 276 276 275 276 276 276 276 276 275 275 274 273 274 275 274 274 274 274 274 274 273 272 272 272 272 271 271 271 271 270 268 268 267 265 264 264 263 263 265 265 264 261 261 261 259 257 256 255 254 252 251 252 251 251 252 251 252 252 252 253 253 253 253 253 254 254 254 253 253 254 254 254 256 257
272 269 275 275 276 276 277 279 279 277 277 277 277 276 277 277 275 275 276 276 276 275 274 275 276 275 275 274 275 275 274 273 274 273 273 274 274 273 272 274 271 269 269 269 268 267 266 263 263 262 261 261 262 260 260 260 260 257 256 256 256 254 254 253 251 250 251 252 252 252 251 252 252 253 253 252 253 254 254 253 253 253 254 255 256 257 259
273 272 273 274 274 275 277 279 278 278 279 278 276 278 278 278 276 275 275 274 274 273 272 275 275 275 275 274 274 274 274 274 274 274 273 273 273 272 273 272 269 268 269 270 269 267 267 265 263 262 261 261 259 259 259 260 257 256 256 256 256 254 252 250 252 251 252 255 255 253 253 252 252 253 252 253 253 253 254 254 254 254 254 256 258 260 261
274 273 273 273 273 274 275 275 276 278 279 279 277 276 276 275 275 274 273 274 275 274 276 274 274 272 274 274 274 274 275 274 274 274 274 274 273 273 271 269 268 270 270 269 270 268 269 266 263 262 262 261 259 259 260 257 256 256 256 255 253 252 251 250 251 253 253 252 252 253 252 252 252 253 253 253 254 255 257 257 257 257 257 258 260 261 262
267 269 272 273 268 267 275 276 277 278 278 277 276 275 274 274 275 274 274 274 273 274 275 274 273 273 275 275 274 273 275 275 275 274 273 273 272 271 270 269 268 269 268 269 269 268 267 264 263 263 262 261 259 261 259 257 256 256 256 255 253 254 253 252 250 251 252 251 251 252 251 252 252 253 258 262 261 259 259 264 267 269 268 264 265 268 268
269 273 275 276 278 277 276 278 278 278 278 276 276 276 276 276 276 276 275 274 273 273 273 274 274 274 275 275 274 273 274 275 275 275 274 272 271 272 269 268 266 267 268 267 267 266 266 264 263 263 262 260 259 259 258 257 257 256 256 256 256 256 254 254 253 253 252 252 252 252 252 252 252 253 253 256 262 265 266 266 268 269 270 271 272 272 270
273 275 276 276 276 275 277 277 276 277 277 277 277 278 278 277 277 275 275 276 276 275 275 273 274 275 275 275 274 274 274 274 273 273 272 273 273 271 268 269 269 267 266 266 266 267 266 263 263 262 261 260 258 257 257 256 257 256 255 256 256 256 255 254 255 255 254 253 253 253 253 253 253 253 252 252 254 260 264 265 266 267 268 270 271 271 270
275 275 274 275 276 277 278 277 275 276 276 277 277 277 277 277 276 275 274 274 275 275 276 277 274 273 274 274 274 274 274 275 274 273 273 271 271 270 268 266 267 267 268 267 267 266 263 262 261 260 260 258 257 257 257 256 256 255 255 256 256 256 255 255 255 255 254 254 254 253 252 252 252 251 252 251 252 253 257 263 265 265 267 268 269 268 269
277 274 274 274 274 276 277 276 276 276 273 274 276 275 276 276 276 273 274 275 276 274 275 275 275 273 273 274 274 273 272 273 272 269 268 269 266 265 266 267 268 268 265 264 264 263 261 260 259 258 258 257 257 257 256 256 256 256 256 256 257 256 255 255 254 254 253 253 253 253 253 253 252 253 252 253 252 253 254 254 256 260 262 264 265 266 267
276 276 274 273 274 276 276 276 278 281 276 275 276 277 277 275 275 275 274 273 273 273 274 275 275 274 269 272 272 271 272 271 267 268 269 268 267 269 268 265 264 263 263 262 260 260 259 258 258 258 259 257 257 256 256 255 256 256 256 256 255 255 256 256 255 254 254 255 254 253 253 253 253 252 253 253 254 254 253 253 253 254 255 256 260 263 263
278 277 277 276 275 277 279 279 278 279 278 274 274 275 275 273 271 269 271 273 273 271 271 270 271 270 271 270 268 270 265 266 270 268 267 267 267 264 262 261 260 260 261 260 259 258 258 257 258 258 258 257 257 257 256 255 256 256 256 256 256 256 255 255 255 255 254 253 254 254 253 253 253 253 253 254 254 253 253 254 254 254 254 255 256 260 263
278 277 277 279 280 281 281 276 274 275 276 274 273 273 270 271 271 271 272 274 275 273 273 272 269 270 272 271 268 270 269 268 268 267 268 265 260 258 258 258 258 257 258 257 256 256 256 256 257 258 258 257 257 256 255 255 256 256 256 256 255 255 255 254 254 254 254 253 253 254 256 255 255 254 253 254 253 253 252 252 252 252 253 253 254 255 258
278 275 275 276 278 277 276 276 277 276 275 274 271 271 272 273 272 273 273 274 273 272 274 274 269 270 269 268 267 269 270 270 270 267 263 259 258 257 257 257 256 255 254 254 255 255 256 256 257 258 258 257 256 255 254 254 256 256 257 256 255 254 254 253 253 253 252 253 253 255 255 255 254 254 253 252 252 252 252 252 253 253 252 252 255 253 253
276 274 274 276 275 275 275 276 277 277 276 273 272 271 269 269 272 274 274 274 273 273 273 273 272 272 266 268 269 266 264 264 263 260 257 256 255 256 256 258 261 259 258 258 256 255 255 255 256 257 257 256 255 255 254 255 256 256 255 255 254 255 257 257 257 254 253 253 254 254 253 253 252 252 252 251 251 250 250 250 250 251 251 251 251 252 253
277 271 270 273 274 273 273 274 274 275 275 275 269 270 272 271 271 272 274 274 274 274 273 270 268 269 270 264 260 259 258 257 256 256 255 254 254 254 255 256 255 256 255 256 255 255 255 255 255 256 255 254 255 255 255 255 255 254 254 255 254 254 256 258 256 258 257 256 255 253 253 251 251 249 250 251 250 250 249 249 249 250 250 251 252 252 253
274 275 274 274 271 267 269 271 272 273 274 273 274 275 275 275 274 274 274 275 274 272 271 271 270 269 261 258 257 257 255 255 254 255 254 254 253 253 254 253 253 253 254 254 255 256 256 255 256 255 255 256 256 256 256 255 254 254 254 254 254 255 254 257 257 255 255 254 253 253 251 251 251 250 250 251 251 251 249 250 251 250 251 251 251 252 253
278 278 279 280 279 277 274 274 273 272 273 274 274 274 273 273 273 274 274 273 272 269 270 269 265 260 258 259 258 257 256 257 256 256 255 255 254 253 253 253 250 251 253 253 254 255 255 255 255 255 255 255 255 254 254 255 254 253 254 253 252 252 251 251 254 253 251 252 252 253 253 252 251 250 251 251 250 250 250 250 251 251 251 251 251 251 255
279 279 279 278 277 275 275 276 276 274 273 273 273 272 273 273 272 272 272 270 270 270 263 260 258 258 258 257 257 256 258 262 260 258 256 255 254 253 253 251 251 251 251 253 253 254 254 254 254 255 255 254 253 253 253 253 253 253 251 251 251 250 251 250 251 251 252 252 250 249 249 249 250 252 252 251 250 250 250 251 251 251 251 251 252 251 252
272 274 274 275 275 273 271 273 274 274 274 274 274 274 271 270 267 267 269 267 261 259 259 259 257 257 256 257 257 257 258 256 255 256 255 254 253 253 253 252 252 252 251 253 254 253 253 252 254 255 254 253 253 253 253 251 250 251 250 249 250 250 250 250 250 250 251 250 250 250 249 251 252 251 250 250 249 249 249 248 249 249 251 251 251 252 252
270 273 275 274 274 268 269 270 265 264 268 266 266 265 263 262 262 258 256 255 256 257 256 256 256 257 257 257 257 255 255 254 255 254 253 253 253 253 252 251 251 251 252 253 253 248 246 247 253 255 255 252 254 252 253 254 251 249 248 249 248 249 249 249 249 249 249 249 250 250 251 250 249 248 250 248 248 248 249 249 250 250 250 251 252 251 251
270 270 271 269 261 260 254 249 248 252 257 257 250 251 254 254 253 252 253 253 253 254 255 256 256 256 255 255 254 254 252 252 251 251 251 251 252 251 250 251 252 251 251 253 249 247 247 250 254 252 250 250 250 250 253 254 254 250 248 249 248 248 249 248 248 249 249 248 249 248 248 248 248 247 247 246 247 248 249 250 250 250 250 251 250 250 251
266 259 253 251 252 251 251 251 248 248 250 256 251 249 251 252 252 252 252 252 252 253 254 253 254 255 255 253 251 250 249 249 250 250 249 248 249 251 251 251 251 251 252 249 247 247 249 251 251 248 248 247 249 251 251 253 255 250 248 248 247 248 248 248 249 249 249 249 247 247 247 248 247 247 247 246 246 249 250 250 250 251 251 251 250 250 249
258 254 253 250 250 251 252 251 249 249 249 249 250 250 251 253 253 253 253 253 253 253 254 255 255 253 252 251 251 250 247 247 247 248 246 246 247 246 248 250 250 249 249 251 250 249 251 253 251 248 249 249 249 248 249 252 253 250 249 248 247 248 248 249 248 247 248 247 249 251 249 249 248 248 248 248 247 249 248 249 250 250 250 250 249 249 249
253 252 252 251 250 250 250 252 251 250 249 250 251 251 252 252 253 253 251 250 249 251 252 252 253 252 251 251 250 248 246 245 245 245 245 246 246 245 248 251 249 245 245 247 246 247 250 251 249 247 248 249 248 252 249 251 251 248 248 248 247 248 247 248 248 249 248 249 248 248 249 247 247 248 248 247 248 247 248 249 249 250 249 249 248 248 248
252 252 252 252 251 250 249 250 250 251 250 249 249 250 250 251 252 251 249 249 249 249 250 250 251 250 248 247 247 246 244 242 242 243 244 248 247 246 246 249 248 247 251 251 251 250 248 247 249 251 248 248 247 251 252 252 248 246 248 247 247 248 247 247 249 249 248 247 248 247 247 246 247 247 247 247 247 248 248 248 249 249 248 248 248 248 247
250 250 250 250 250 249 249 250 250 250 249 249 247 247 249 249 249 249 248 248 248 248 249 249 249 249 248 247 246 245 243 242 242 242 242 244 245 247 248 248 246 246 251 250 248 246 247 246 246 245 250 250 250 251 252 251 246 246 245 246 247 247 247 249 248 247 247 247 247 247 246 246 247 247 247 247 247 248 248 248 248 248 248 248 247 247 247
248 249 249 249 250 251 250 250 250 250 250 249 248 247 248 248 248 248 248 248 248 248 248 246 245 245 245 244 244 245 243 243 243 243 243 246 247 246 246 247 247 247 250 249 248 247 246 246 244 247 251 252 253 253 252 250 249 246 244 246 246 247 248 247 248 248 248 248 248 248 248 248 248 247 247 247 248 248 248 248 248 248 248 247 247 247 247
249 249 249 250 249 250 251 250 250 250 249 248 248 246 246 246 245 245 247 247 247 246 248 247 247 246 243 243 244 245 244 244 244 244 246 248 247 250 246 247 247 246 248 251 248 247 245 244 248 252 252 253 253 254 252 251 250 250 250 248 247 247 248 248 249 248 248 248 248 249 249 249 248 248 248 248 249 249 249 249 249 248 248 248 248 248 248
248 249 249 250 249 248 249 249 250 250 250 249 248 247 245 244 245 244 244 245 246 245 248 248 247 247 247 244 243 243 241 242 242 243 245 247 249 248 246 248 247 249 251 252 248 247 247 251 253 253 254 254 254 253 251 251 252 251 251 250 247 248 248 248 249 249 249 249 249 249 249 249 248 249 249 248 248 249 249 250 250 249 249 249 248 248 248
248 247 247 246 247 246 248 249 250 250 250 250 249 247 245 243 243 242 242 241 242 241 242 244 246 247 248 243 244 245 246 249 247 245 244 245 246 248 249 250 251 252 252 249 249 248 248 249 252 254 254 254 254 251 250 251 252 252 252 250 250 249 249 249 249 249 249 250 250 250 250 250 249 249 249 249 249 249 249 249 249 249 249 249 248 249 249
246 246 246 246 246 246 248 249 249 249 249 249 248 247 244 242 242 242 242 242 242 241 242 241 241 241 242 243 244 245 247 247 248 250 245 243 244 244 245 244 247 250 252 253 253 253 254 255 255 255 255 255 254 251 251 251 251 252 252 251 251 251 250 250 250 250 250 250 250 250 249 249 249 249 249 249 249 249 249 249 249 249 248 248 248 248 248
245 245 245 246 247 247 248 249 249 249 248 247 247 246 245 245 246 247 246 246 246 247 247 246 245 245 244 245 246 245 246 248 250 250 248 245 245 247 250 251 252 253 252 251 249 248 252 254 254 255 255 254 251 250 249 250 251 251 252 252 252 252 252 251 251 251 250 250 250 250 250 249 249 249 249 249 249 249 249 249 249 248 248 248 248 248 248
245 246 247 247 248 248 248 249 249 248 247 247 247 246 246 249 251 248 248 248 249 251 249 250 250 249 248 246 247 247 246 246 249 250 250 250 250 250 251 249 250 252 253 251 249 250 253 254 254 254 254 251 251 251 251 251 251 252 252 252 252 252 252 252 252 252 251 251 250 250 250 250 249 249 249 249 249 249 249 249 249 249 249 249 249 248 248
245 246 245 245 245 244 243 245 245 246 246 247 246 247 248 249 249 250 250 250 250 251 251 252 252 251 250 250 249 247 247 246 247 249 250 250 250 251 252 252 252 253 254 253 252 251 251 250 249 251 252 252 252 251 250 251 252 252 253 253 253 253 253 253 252 252 252 251 250 250 249 249 249 249 249 249 249 249 249 249 249 248 248 248 248 248 247
245 244 244 243 243 242 243 243 244 244 245 246 246 247 248 248 249 249 250 253 251 251 251 251 253 252 250 250 252 250 246 246 246 247 251 251 251 251 251 254 253 252 251 250 250 248 250 250 253 254 253 252 252 251 252 253 253 253 253 253 253 253 253 252 252 251 251 251 250 249 249 249 249 249 249 249 249 249 249 248 248 248 248 248 247 247 247
Wind_Speed
7 2 4 5 3 5 5 10 12 14 13 10 14 11 11 7 11 16 7 8 6 8 7 9 10 10 10 10 13 12 6 2 3 4 6 8 9 6 7 9 10 10 10 10 10 10 9 7 8 7 6 4 4 3 3 3 3 4 4 5 5 5 4 4 3 3 2 3 2 2 3 3 4 5 5 4 4 4 4 4 5 4 6 7 6 7 6
8 5 3 4 7 4 3 6 11 12 12 13 12 12 13 14 12 9 3 3 11 6 2 8 9 4 4 3 1 1 3 4 5 6 7 8 8 9 10 11 11 11 10 9 10 10 8 9 9 7 6 6 6 6 4 3 3 3 6 5 7 5 4 4 3 3 3 3 3 2 3 4 4 3 3 4 4 4 4 4 4 4 5 5 5 6 7
5 1 2 0 3 5 8 10 12 8 2 4 11 11 3 3 5 8 7 9 13 5 6 5 2 2 1 1 4 5 3 3 5 6 7 8 8 7 7 8 8 8 8 9 8 9 10 10 10 9 8 7 6 5 5 5 5 5 5 6 5 6 5 4 4 3 3 3 3 3 3 3 2 3 4 3 3 3 3 3 4 4 5 5 5 6 6
3 1 5 2 1 2 6 13 15 6 6 8 7 5 6 7 11 8 5 9 12 4 5 3 3 4 5 8 7 4 4 5 4 6 7 7 6 6 8 9 7 7 9 10 10 12 12 10 9 8 8 7 6 6 6 7 6 5 5 5 6 5 5 4 3 4 3 3 3 3 3 3 3 3 3 3 3 4 3 4 4 3 5 5 6 6 6
6 1 4 6 4 1 9 20 16 11 12 8 3 3 6 12 7 6 9 13 8 2 4 3 6 6 7 5 4 6 6 5 7 9 9 7 6 7 8 8 9 10 11 12 13 12 9 10 10 10 8 8 8 8 8 6 6 5 5 5 5 5 4 4 3 3 3 3 2 3 3 3 2 3 3 3 4 4 4 3 3 4 5 6 6 6 7
2 1 4 3 4 9 17 1 7 15 14 14 10 9 12 8 8 8 8 6 2 4 4 7 9 8 6 8 11 6 6 6 6 7 5 6 8 8 8 7 8 9 8 8 9 10 10 9 9 6 7 8 7 6 7 6 7 5 6 4 5 5 4 3 3 3 3 3 2 1 1 1 1 2 3 3 3 2 3 3 4 4 4 5 5 6 7
4 3 5 2 9 18 1 1 5 5 13 14 18 17 11 7 9 9 6 5 5 7 10 11 8 4 6 4 4 4 4 5 6 7 8 10 10 11 8 7 7 8 10 9 6 5 7 7 6 7 5 5 7 6 7 7 5 7 5 6 5 5 5 4 3 2 3 2 1 1 1 1 1 2 3 3 3 3 3 4 5 5 5 5 5 5 7
4 4 6 7 10 1 3 6 3 4 6 2 2 5 6 8 11 11 7 8 11 12 11 5 2 3 2 3 4 5 5 7 8 7 9 10 9 8 9 11 11 9 10 11 12 12 6 6 6 7 8 7 9 8 5 7 6 5 6 5 6 5 5 4 3 3 2 1 1 1 1 1 2 3 3 3 4 4 3 3 3 3 4 3 6 7 7
6 5 9 12 5 6 3 2 3 5 5 6 7 7 7 11 8 8 8 10 13 11 7 3 1 1 0 4 8 4 7 8 8 10 9 7 9 10 9 9 10 10 10 9 8 5 6 7 8 8 7 8 8 8 7 5 5 5 5 5 5 5 4 4 3 2 2 1 1 1 1 2 3 3 3 4 3 3 4 4 4 4 4 5 5 7 8
7 5 3 2 3 12 9 4 3 1 3 5 4 4 7 4 2 9 10 11 14 10 4 2 2 2 2 6 9 3 6 5 6 5 5 4 5 6 6 3 3 4 4 3 3 7 8 6 6 6 8 9 9 8 7 6 5 6 4 5 5 5 5 4 3 2 2 1 1 1 1 2 2 2 2 2 3 2 4 5 6 5 5 6 5 6 7
5 3 5 5 7 7 3 3 2 0 1 8 4 1 8 5 7 10 12 11 9 7 6 3 5 3 2 8 9 4 4 4 5 6 7 6 6 5 6 8 8 7 6 6 6 5 6 8 7 7 8 9 9 8 7 7 5 5 5 5 6 6 5 4 3 3 1 1 0 0 1 2 2 3 3 4 3 3 4 4 5 5 5 7 7 6 6
6 4 5 7 3 5 1 3 1 3 3 5 4 4 8 4 8 5 7 9 7 7 4 7 6 8 7 7 9 3 7 7 6 8 8 7 7 7 5 5 4 4 7 7 5 6 9 10 8 9 8 8 7 8 7 6 6 6 7 7 5 4 4 4 3 2 1 0 0 1 2 2 2 3 3 3 4 4 4 4 5 5 6 6 8 8 7
8 10 6 2 6 4 2 7 4 4 2 5 3 14 6 2 6 5 7 7 8 6 7 8 7 10 9 7 4 2 2 2 3 5 6 7 5 6 6 6 5 7 8 10 12 13 9 9 10 9 8 8 8 6 7 6 8 8 5 5 5 5 4 4 3 2 1 1 1 1 1 2 2 3 3 4 4 4 5 5 4 6 7 7 8 9 7
9 7 8 9 6 5 6 0 9 7 5 3 12 4 2 9 7 7 9 8 4 7 11 9 9 9 10 2 0 2 4 6 4 4 4 3 1 1 2 6 6 5 6 6 4 3 5 10 9 9 9 9 7 7 6 9 8 4 6 6 6 4 4 3 2 1 1 1 1 2 2 1 3 4 3 3 3 4 4 4 6 7 6 7 8 9 7
3 1 6 3 9 3 11 11 2 3 5 6 4 2 1 4 7 8 6 6 6 8 8 10 11 9 3 4 6 5 4 4 6 6 4 5 7 7 4 4 6 8 7 8 10 9 7 9 9 9 9 9 8 7 10 10 5 6 6 6 6 4 4 3 2 1 1 1 2 1 2 3 3 4 4 3 4 4 5 5 6 7 7 7 8 9 8
6 9 9 10 6 4 14 16 9 6 9 5 5 7 5 3 4 6 7 7 8 10 10 11 9 7 6 5 4 4 4 6 6 5 4 4 3 3 5 4 6 8 9 9 8 5 7 8 9 9 12 12 9 10 12 4 6 5 6 5 5 4 4 3 2 1 1 2 2 2 3 3 2 4 4 4 4 4 4 5 6 7 6 6 7 8 9
9 9 8 1 2 10 11 7 3 8 8 5 8 6 7 7 6 4 4 8 8 11 10 8 8 5 6 8 6 5 7 6 6 7 9 9 9 9 10 10 8 9 12 12 10 7 7 8 8 9 8 12 10 12 5 7 7 8 6 6 5 4 4 3 2 2 2 3 3 3 3 2 3 4 4 3 4 3 4 4 5 6 7 5 6 8 8
3 2 3 1 1 3 8 5 3 6 5 3 4 6 4 5 6 9 9 8 7 9 7 6 4 6 7 6 6 6 6 6 7 5 4 5 6 6 4 2 6 10 7 4 6 9 7 7 8 7 8 9 14 9 6 7 7 7 7 6 5 5 4 3 3 2 3 3 3 3 4 3 4 4 4 4 4 5 4 5 5 6 7 6 6 7 8
0 7 2 7 6 3 6 10 6 2 1 6 6 4 6 5 6 8 7 6 6 7 9 10 9 9 8 7 8 6 5 7 8 7 8 8 8 9 9 12 8 7 7 8 10 10 12 9 9 8 8 6 5 6 8 8 8 7 7 6 5 4 4 4 3 3 3 3 3 3 3 3 4 4 4 3 4 5 5 6 6 5 6 6 7 6 6
6 5 3 2 3 2 6 8 8 7 10 8 6 7 6 6 4 5 6 2 1 5 6 10 9 9 7 6 7 6 7 8 8 7 8 10 7 8 10 6 6 6 7 11 12 11 13 12 10 9 8 8 6 7 7 8 8 8 7 6 6 5 4 4 3 3 4 4 4 4 4 3 4 4 4 4 4 6 6 6 5 6 5 7 7 6 8
3 3 1 0 2 2 4 5 7 9 7 6 5 6 7 5 5 3 2 5 6 7 9 7 6 5 7 7 8 7 7 7 7 8 10 9 10 8 5 5 7 10 10 11 13 13 13 8 9 9 9 7 7 9 9 8 9 8 7 5 5 4 3 3 4 3 4 4 4 4 4 4 5 5 5 4 6 7 8 7 7 8 7 8 9 10 9
6 7 4 6 3 4 6 9 13 13 12 7 5 2 4 6 7 7 6 7 5 6 6 6 7 8 9 8 6 8 10 10 9 7 8 8 8 8 7 6 9 10 10 12 11 11 7 6 9 9 9 8 8 7 8 8 9 9 8 6 5 5 4 4 4 4 4 4 4 5 4 5 5 5 8 12 9 7 7 12 18 19 16 9 9 8 7
5 3 10 10 9 7 7 9 10 11 7 5 7 9 9 9 8 8 6 7 6 7 9 7 8 9 9 11 7 7 8 10 10 9 8 7 7 9 6 6 7 10 12 10 9 9 9 9 10 10 9 10 10 9 9 9 9 9 8 7 6 5 6 6 6 5 5 5 4 5 5 4 4 5 6 7 10 13 15 14 15 16 16 19 19 17 10
1 6 9 10 7 9 7 7 6 7 8 9 10 11 10 9 9 7 8 9 10 9 7 7 10 11 10 10 6 9 10 9 7 7 8 8 8 7 5 9 9 10 9 9 12 14 8 9 10 10 10 9 10 9 8 8 8 8 8 8 10 10 9 7 6 6 5 4 4 4 4 4 5 4 3 6 9 8 8 9 12 14 17 17 15 11 11
5 4 4 6 9 9 9 6 4 6 6 7 7 9 11 10 9 7 9 10 8 10 9 10 7 9 10 10 8 9 9 10 8 9 8 7 7 6 7 7 8 11 13 12 10 7 8 9 9 10 10 10 9 9 9 9 9 9 9 9 10 8 8 8 5 5 5 4 4 4 4 4 4 4 4 3 5 8 10 10 11 11 12 10 6 7 12
6 3 4 4 2 8 6 1 5 7 4 6 7 6 7 9 8 5 9 11 10 9 9 10 9 6 9 10 9 8 8 10 9 5 5 6 6 4 6 11 13 8 6 5 6 7 8 9 10 9 10 9 10 9 9 8 9 10 11 12 10 8 7 8 7 5 5 4 4 5 4 5 5 5 4 4 4 4 5 9 12 5 2 3 7 11 13
5 6 4 0 4 10 6 8 12 11 7 10 11 11 10 8 8 7 7 5 7 7 9 11 10 7 5 8 8 7 9 8 3 5 7 7 7 11 9 5 4 5 5 5 6 7 9 9 9 10 10 9 8 8 9 10 10 9 11 11 9 6 7 5 6 5 4 4 5 4 4 5 5 4 5 4 4 4 4 4 5 7 11 8 6 8 9
9 8 11 10 11 12 11 12 12 14 8 8 9 10 10 4 2 5 7 8 7 8 8 7 7 6 8 7 6 8 5 5 9 7 6 10 8 3 2 3 3 5 5 6 5 6 7 8 8 8 8 7 8 9 10 11 11 10 9 8 7 5 6 6 6 5 4 5 5 5 5 5 5 5 5 5 5 4 4 4 5 6 7 8 8 10 15
11 9 9 12 14 13 11 2 3 7 10 5 7 7 3 4 8 7 9 11 11 6 7 8 7 9 9 7 6 8 8 7 8 9 10 5 2 3 4 4 4 4 5 5 5 6 7 7 7 7 6 5 7 8 10 11 10 9 9 10 7 6 5 5 5 5 5 4 4 5 5 5 6 5 5 4 5 4 5 5 5 5 6 7 8 10 7
9 5 6 9 11 9 7 9 12 10 9 4 6 7 8 8 7 9 11 11 9 9 12 9 5 7 8 7 7 8 11 12 11 5 3 4 4 5 6 7 7 5 4 4 6 6 7 7 7 8 6 5 7 6 8 8 7 8 8 7 7 6 6 4 5 4 4 5 5 7 6 5 5 5 4 4 4 4 6 5 5 5 5 6 5 6 8
3 6 9 10 11 9 10 15 14 11 8 6 6 6 5 6 9 10 11 11 8 8 10 9 9 8 5 9 9 6 4 2 1 3 3 4 4 5 7 9 10 9 9 8 7 6 6 6 5 5 2 4 5 6 7 7 7 7 6 5 5 7 9 9 7 6 5 5 5 6 6 6 5 5 6 5 5 5 6 5 4 5 6 5 6 6 7
7 5 8 7 9 10 10 9 9 10 10 8 4 6 10 10 11 14 14 11 12 12 11 8 7 10 11 5 2 3 3 3 3 3 3 3 3 3 4 2 2 4 3 4 5 5 5 4 6 4 2 3 4 5 6 6 6 7 7 4 6 5 7 11 7 7 6 6 6 6 7 5 6 4 5 6 6 5 4 4 5 5 5 5 6 6 6
7 10 8 11 9 6 8 9 9 12 11 10 11 12 11 9 10 10 12 11 9 8 7 9 9 7 3 4 4 4 4 4 3 4 4 4 3 3 3 2 4 4 4 3 3 4 5 6 4 1 2 3 4 5 6 6 6 6 5 5 5 6 5 7 8 6 5 6 6 7 6 6 6 6 7 7 5 6 5 5 5 5 5 6 6 6 5
13 14 16 15 12 11 12 14 11 11 10 9 9 9 8 8 9 10 10 10 8 7 8 8 4 3 5 5 6 5 6 5 3 5 5 5 4 4 3 4 4 4 4 3 2 1 1 2 1 1 2 4 4 5 6 5 5 5 5 5 5 5 5 5 6 5 6 7 7 6 6 7 6 6 7 7 5 6 6 5 6 6 5 5 6 6 8
12 13 11 10 9 7 7 9 9 9 10 11 10 8 10 9 8 10 9 7 8 7 2 2 3 5 5 5 5 6 7 7 4 4 5 5 5 5 5 4 3 3 1 1 2 2 2 3 4 4 3 4 4 5 5 6 5 5 5 5 5 5 5 6 5 6 6 6 4 5 6 6 6 5 6 6 6 7 6 6 5 5 5 6 6 4 5
5 6 8 9 10 8 6 8 9 8 8 9 11 9 7 7 7 7 8 6 1 2 3 4 5 5 5 6 6 6 5 3 5 5 6 6 5 5 6 5 4 1 1 3 1 2 3 3 3 4 3 3 4 4 5 5 4 5 5 5 5 5 6 5 5 4 6 5 6 6 6 6 5 7 6 6 6 5 6 5 5 5 5 6 5 5 5
5 6 8 8 8 5 6 5 3 3 5 5 5 5 4 2 3 1 0 2 2 3 4 6 6 6 6 3 4 4 4 5 5 6 7 5 5 6 6 5 3 3 1 1 0 1 1 0 3 6 5 4 5 4 5 6 5 5 4 6 5 6 5 5 5 5 6 5 6 6 6 6 5 6 7 5 6 6 6 6 6 6 5 5 5 5 6
7 6 7 5 2 1 1 2 2 1 0 3 3 3 1 1 2 3 3 3 3 3 3 4 4 5 6 6 6 6 5 5 6 7 6 6 5 7 4 5 4 4 3 3 1 0 0 1 2 1 2 3 4 4 5 8 8 6 6 6 6 5 6 5 6 7 6 6 7 6 6 6 7 7 7 6 6 5 6 6 6 5 5 5 5 4 6
4 3 3 4 4 4 5 3 5 5 4 1 1 2 2 3 4 5 5 4 3 3 5 6 7 8 6 8 7 5 5 4 5 6 6 5 2 3 2 2 2 3 3 1 1 2 2 1 2 0 0 2 3 3 4 6 8 6 6 5 4 5 6 6 6 7 7 7 5 6 5 6 6 6 6 6 6 6 6 7 6 6 6 5 5 5 5
4 4 2 2 3 2 3 5 5 5 4 2 3 3 3 4 5 6 6 6 4 3 4 5 7 7 6 6 7 6 3 3 4 6 6 4 4 2 3 3 2 4 4 5 4 3 3 4 2 2 3 3 2 4 4 4 4 4 5 6 6 6 6 6 5 6 6 4 6 6 7 7 7 7 7 6 6 6 6 6 5 6 5 5 5 6 6
3 2 2 4 4 3 3 4 5 6 5 6 5 4 3 4 5 7 6 5 3 5 6 4 7 6 5 6 6 6 4 3 4 5 4 5 4 3 1 2 1 1 1 1 1 2 2 2 1 2 3 3 3 4 4 5 5 4 5 6 5 6 6 6 6 6 6 6 7 6 7 6 6 7 7 6 6 6 5 5 5 5 5 5 5 5 5
2 2 3 4 3 4 4 4 4 7 6 5 5 4 4 3 6 8 6 5 6 5 6 6 6 8 6 6 6 5 4 3 3 2 1 2 3 4 0 3 0 1 1 0 1 1 1 1 2 3 3 3 4 6 6 5 4 4 5 5 6 4 5 5 6 6 6 6 6 6 7 7 6 7 6 6 6 6 6 5 5 5 5 5 6 6 5
2 2 3 3 3 3 4 4 6 6 6 6 5 5 5 5 7 7 6 6 7 7 8 7 7 7 7 6 6 5 3 1 1 1 2 5 4 4 3 3 1 1 3 1 1 1 2 2 3 2 4 5 5 6 6 4 3 5 4 4 5 4 5 5 5 5 6 6 6 6 6 6 6 6 6 6 6 6 5 5 6 6 5 5 5 5 6
3 3 3 4 4 4 4 5 5 5 8 6 5 5 6 7 6 6 7 7 6 5 7 5 5 5 4 4 5 5 3 2 1 2 1 2 1 2 5 5 4 4 4 3 1 2 3 2 2 5 5 6 7 6 4 3 3 4 4 4 5 5 5 4 6 5 6 6 6 6 6 7 6 6 6 6 6 6 5 6 6 6 6 5 5 5 6
4 4 4 5 4 4 4 4 5 7 6 4 7 8 7 7 6 5 6 6 6 4 4 4 3 4 2 2 3 3 3 4 5 5 1 2 3 1 1 3 4 2 4 4 3 2 3 3 5 5 5 5 6 5 3 4 4 4 4 5 6 5 5 5 6 6 6 6 6 6 7 6 6 6 6 7 7 6 6 6 6 6 5 5 5 6 6
4 4 4 5 6 5 4 5 6 6 8 10 9 7 6 5 5 5 4 5 6 4 4 3 3 2 3 3 1 1 2 4 5 4 4 2 0 1 3 4 4 4 4 4 2 2 4 5 7 7 7 7 6 5 4 4 4 4 4 5 5 6 5 5 5 6 6 6 6 6 6 6 6 6 6 6 6 6 6 7 7 6 6 6 6 6 6
4 5 6 6 5 4 5 5 5 5 5 7 8 5 3 3 4 4 3 3 4 2 1 1 2 2 2 3 2 1 2 3 1 2 4 4 3 3 3 4 3 4 3 3 3 3 4 4 5 6 6 7 7 4 3 4 4 4 4 5 5 5 5 5 5 6 6 6 7 7 7 7 6 6 7 6 6 6 6 6 6 6 6 6 6 7 6
4 5 4 5 6 5 5 4 5 6 5 6 5 4 2 1 2 2 2 2 2 1 1 0 0 2 2 2 2 2 3 2 2 0 2 3 3 4 3 3 3 3 4 4 5 5 6 7 7 8 8 8 6 5 4 4 3 4 4 5 5 5 5 5 5 5 6 6 6 6 6 6 6 6 6 6 7 6 6 6 7 6 6 6 6 6 5
4 4 4 4 4 6 5 5 5 6 4 3 4 3 3 3 4 4 3 4 6 5 3 2 1 1 1 3 4 5 5 4 2 1 1 3 2 2 1 2 4 5 4 2 3 4 4 5 7 8 8 7 5 5 4 4 4 5 5 5 5 5 5 6 6 5 5 6 6 6 6 6 6 5 6 6 6 6 6 6 7 6 6 6 5 6 6
2 3 4 5 4 5 4 4 4 3 2 2 3 1 0 1 4 3 3 3 2 3 3 3 3 1 0 1 3 3 4 5 3 3 3 3 3 2 2 1 2 5 5 4 2 3 4 5 6 6 6 4 5 4 4 4 4 5 5 5 5 5 6 6 5 6 6 6 6 6 6 6 6 6 7 6 6 6 6 6 6 7 8 7 7 6 6
4 5 4 4 3 2 3 4 4 4 3 2 1 1 1 4 3 2 1 1 2 3 2 2 1 0 2 1 1 2 3 3 3 3 2 2 1 2 3 3 3 4 4 3 2 3 3 3 3 5 4 4 4 4 4 4 4 4 5 5 5 5 5 5 5 5 5 5 5 6 6 6 5 6 6 6 6 6 6 6 6 6 6 6 6 6 6
4 4 4 3 4 4 4 4 3 2 1 1 1 2 2 2 2 2 1 2 3 2 2 2 1 0 0 1 1 0 1 3 3 1 2 3 2 2 4 4 3 4 3 3 3 3 3 3 4 5 5 4 4 4 4 5 5 5 5 5 5 5 5 5 5 5 5 6 5 6 6 5 5 6 6 6 6 7 7 6 6 6 6 6 5 6 6
Wind_Direction
257 189 188 166 170 214 207 217 225 229 222 200 205 218 226 173 215 244 236 167 210 239 210 196 207 201 197 197 206 210 203 153 145 151 181 201 209 197 189 201 202 205 203 197 197 200 203 196 193 195 187 180 172 175 172 165 158 176 154 134 134 136 129 129 134 130 118 94 84 78 65 57 49 31 28 25 20 16 17 12 5 357 356 348 338 342 338
247 244 171 162 189 197 219 235 230 226 213 210 204 217 220 215 231 251 303 178 231 225 156 184 219 216 206 232 25 73 154 179 172 185 203 209 213 204 205 207 207 208 205 197 199 198 197 197 196 188 184 189 186 178 177 162 146 149 137 144 142 143 138 136 131 120 110 93 76 70 55 47 42 27 30 22 17 17 17 9 356 356 349 340 341 334 330
243 189 65 261 203 196 227 242 240 222 171 189 203 216 193 56 288 268 252 252 264 242 174 202 254 154 170 337 251 232 222 197 197 197 212 218 217 214 217 219 217 211 205 204 199 197 201 199 195 187 189 190 179 172 164 158 158 163 147 145 143 143 139 136 119 105 93 77 69 62 52 47 33 26 24 14 17 17 13 4 356 355 340 337 341 326 320
267 178 159 131 56 28 254 259 247 142 181 220 205 190 200 197 224 227 233 250 254 232 132 203 224 196 185 211 226 213 230 220 193 208 227 227 228 221 220 221 213 207 205 203 202 204 203 197 190 188 187 182 168 177 165 167 164 151 142 141 139 133 128 118 106 96 93 84 70 56 46 30 24 17 14 8 11 8 358 359 353 345 341 336 326 320 314
210 279 140 148 120 293 279 247 235 195 216 215 67 226 217 217 201 202 224 240 248 229 151 166 233 222 229 239 237 235 234 215 204 218 227 230 233 230 228 221 213 209 205 204 205 206 197 193 191 196 178 165 183 172 169 169 143 144 140 135 128 122 119 112 107 104 97 84 73 53 42 26 17 8 13 3 6 358 356 343 335 342 332 327 318 317 313
137 31 133 131 154 225 237 347 150 182 208 209 204 219 221 211 175 209 214 245 98 131 180 206 234 213 211 211 228 211 209 206 221 239 241 237 231 235 234 228 219 217 212 213 211 203 196 195 194 176 171 176 175 160 151 142 149 147 135 128 126 130 124 121 121 114 99 88 73 62 47 26 16 8 10 3 345 334 335 339 342 328 320 317 314 312 313
170 147 116 163 216 235 11 360 338 208 200 192 208 222 233 221 219 236 260 275 255 226 214 217 230 212 229 244 232 244 216 188 201 209 223 226 226 228 227 225 222 215 210 207 200 195 204 192 166 146 165 152 137 138 148 147 150 140 137 135 135 142 138 133 125 115 108 104 94 82 38 31 15 5 360 343 347 346 350 336 331 323 321 316 309 308 308
63 124 183 223 243 10 321 353 351 25 72 53 89 318 270 239 223 214 214 235 239 243 241 237 182 206 241 290 255 225 224 203 200 207 221 224 219 221 217 209 216 205 199 197 195 203 176 147 166 172 168 153 148 152 142 146 147 144 142 140 147 145 143 143 140 135 126 117 98 71 33 16 17 353 349 342 335 333 331 315 294 297 294 295 302 305 304
171 201 196 236 7 319 222 28 276 166 155 173 162 224 253 232 207 175 195 219 244 243 251 218 118 76 65 335 284 208 213 216 211 207 218 209 213 215 223 206 212 205 200 197 197 157 157 170 164 175 152 150 144 142 146 152 145 147 142 151 166 162 152 152 144 134 116 103 69 32 24 10 355 341 335 328 326 322 319 306 307 303 296 298 298 300 302
137 159 215 308 258 250 245 217 209 92 172 135 169 159 281 291 198 184 179 209 230 238 225 110 102 73 37 305 278 231 226 211 209 234 243 249 228 225 224 219 227 194 192 164 152 166 163 165 163 143 148 149 147 148 154 155 149 155 158 180 173 165 162 155 140 121 109 100 61 15 11 346 322 310 307 301 298 304 305 308 305 296 300 299 291 292 294
76 172 214 212 223 254 132 211 186 253 164 127 102 87 273 259 190 201 177 205 225 213 192 167 119 95 199 251 257 254 250 248 205 210 230 223 230 221 205 194 196 191 180 165 155 135 147 160 162 150 150 149 148 159 161 163 160 166 190 184 178 176 167 150 127 123 118 113 103 345 317 299 300 302 302 294 290 293 280 283 286 297 298 296 294 287 281
210 178 229 234 236 244 309 151 209 214 178 126 70 320 273 264 198 191 166 197 212 206 181 137 144 152 202 243 257 214 205 213 204 191 214 219 225 227 211 224 210 168 139 119 134 154 178 185 153 154 152 153 159 162 169 159 172 194 200 191 176 149 138 132 127 123 125 129 180 250 274 290 293 281 285 294 287 293 292 285 292 296 292 289 291 289 287
221 228 251 342 284 264 170 171 151 188 189 83 109 243 234 226 190 191 183 195 206 165 143 160 163 224 201 207 209 161 173 137 234 237 227 224 206 211 204 208 163 154 175 175 180 190 187 157 155 157 156 152 171 170 163 171 204 204 182 153 148 148 136 130 127 132 134 156 234 267 250 264 276 284 281 285 295 296 295 297 293 294 291 289 287 287 285
225 230 241 239 267 230 148 344 149 171 91 211 226 240 194 148 195 197 195 196 191 157 173 186 206 218 224 221 71 170 189 197 226 227 228 221 215 213 196 172 168 174 179 195 176 142 153 158 161 163 161 169 172 167 168 205 207 154 150 151 145 142 142 139 140 139 174 247 236 242 268 267 279 275 265 268 279 287 288 293 295 289 291 290 289 289 286
63 102 242 281 259 240 120 127 45 286 171 241 168 150 277 195 174 171 207 201 203 169 201 209 209 226 247 217 224 231 223 220 241 240 203 192 202 200 165 177 197 172 179 193 202 192 164 164 165 171 165 173 178 174 199 211 154 152 151 149 149 147 142 146 152 179 208 235 264 248 258 254 257 276 281 286 283 283 288 289 284 288 287 289 292 293 294
166 194 203 217 224 119 157 143 183 207 206 189 151 131 186 215 165 180 180 217 200 192 193 201 225 233 240 273 247 247 251 236 248 250 235 234 242 225 223 218 193 179 194 199 198 177 172 173 175 174 174 178 183 188 214 144 145 143 148 148 145 144 150 161 164 198 236 254 249 249 252 263 266 273 283 278 281 274 277 278 284 287 285 286 292 294 302
160 197 213 200 166 160 190 168 155 198 200 153 181 146 169 175 233 186 180 209 203 199 201 204 196 218 228 229 231 206 236 232 228 230 224 213 213 210 205 209 191 188 195 196 190 183 185 182 185 185 187 182 178 201 188 141 156 156 153 147 147 160 171 178 188 225 254 247 251 255 253 234 256 265 275 266 280 267 266 277 274 281 282 281 283 291 295
265 275 172 139 24 190 197 248 203 198 207 193 148 170 157 226 194 169 189 215 196 196 197 183 228 209 228 224 247 236 245 245 247 243 256 256 242 237 229 198 179 202 206 188 177 191 195 192 192 190 196 179 186 199 142 158 153 152 149 147 162 181 188 186 207 211 240 264 256 248 252 235 231 242 248 264 267 280 273 268 263 265 277 278 276 279 281
205 264 88 143 179 183 195 213 233 245 239 208 199 212 227 221 180 200 219 210 195 186 173 190 204 220 216 221 237 237 240 242 242 231 225 236 225 217 211 219 185 177 183 189 198 196 202 200 194 196 192 202 181 136 162 152 151 146 149 161 172 181 194 201 207 199 215 255 268 256 239 242 239 244 240 241 249 266 261 266 265 260 265 269 274 268 266
192 251 171 212 344 243 212 206 215 238 244 235 211 215 224 232 211 193 209 159 159 143 183 205 200 223 219 205 234 239 235 237 239 234 230 235 243 233 223 217 172 184 188 204 206 200 210 200 192 188 189 189 166 152 149 153 142 143 153 168 180 193 201 194 211 204 214 239 240 255 250 233 251 259 245 225 235 248 251 250 256 263 255 262 262 264 277
222 89 33 328 1 346 272 253 250 240 236 237 224 214 227 236 235 228 196 197 195 181 213 196 199 223 247 219 221 231 243 244 239 233 229 229 231 239 231 210 178 196 203 208 214 205 216 185 178 185 190 180 167 157 149 147 147 149 164 169 175 187 194 184 226 221 218 223 225 234 255 255 243 233 245 249 250 256 242 230 233 247 257 252 259 269 261
239 186 190 158 128 251 243 231 230 233 235 225 234 225 234 234 232 221 210 236 220 212 219 185 184 208 241 241 212 226 235 239 242 238 232 232 228 233 219 187 193 206 207 209 215 216 211 164 180 188 185 166 158 162 151 152 153 159 165 165 173 201 194 204 222 226 230 229 227 230 235 249 264 275 248 254 249 241 243 256 257 252 250 243 248 268 285
242 194 190 190 206 230 222 212 222 226 231 194 215 233 233 235 225 219 209 232 246 237 240 208 195 220 231 246 224 223 240 243 238 233 230 230 227 228 205 187 206 208 215 209 210 211 198 173 182 184 181 169 164 171 160 160 163 166 160 169 181 195 192 212 210 211 217 228 225 226 232 237 242 264 299 292 283 280 276 273 272 276 278 281 286 289 291
176 198 183 195 194 217 243 236 212 218 213 198 216 230 232 235 232 213 207 216 222 237 234 217 205 215 227 239 223 230 243 249 245 240 232 228 229 224 188 199 207 208 215 207 207 213 187 175 181 178 178 177 175 172 167 164 164 161 168 174 183 187 188 195 206 209 210 220 231 233 241 237 240 252 266 301 307 301 287 280 289 292 289 288 285 287 303
216 209 171 187 209 230 239 237 209 216 212 186 202 226 230 229 235 205 205 225 224 226 243 253 225 200 214 235 223 225 235 244 232 229 233 231 233 215 208 204 210 208 213 209 209 190 168 175 172 176 178 182 175 174 171 167 164 168 178 184 182 190 186 175 202 206 211 217 229 225 241 243 248 234 252 261 291 310 315 308 300 289 295 293 286 300 314
205 160 178 186 201 236 248 322 295 252 201 190 212 238 239 223 225 188 211 217 229 221 224 239 251 221 198 224 231 227 235 242 239 215 217 227 226 214 207 212 218 214 206 188 185 174 170 173 172 172 182 181 180 173 167 168 171 179 177 181 191 189 195 188 187 209 208 218 221 232 226 231 233 238 244 243 253 271 302 322 331 333 198 298 300 305 309
223 200 130 108 276 265 226 203 243 253 201 199 203 223 232 226 214 217 231 233 235 230 221 229 232 235 207 223 231 225 216 240 224 214 216 220 211 217 221 221 196 190 176 167 167 167 162 164 171 183 188 180 174 167 166 168 173 184 176 173 177 185 189 184 199 208 210 212 216 221 225 231 234 237 243 244 244 252 266 281 284 292 307 305 300 291 300
216 200 171 197 228 241 248 233 228 252 241 187 206 219 237 223 226 249 257 258 257 246 239 238 235 241 236 232 200 240 241 231 224 225 211 224 227 209 162 157 152 154 159 161 160 156 161 170 176 183 195 175 170 171 168 165 171 184 184 176 183 185 189 200 205 209 212 212 215 218 225 236 230 235 233 235 240 244 254 256 261 279 280 284 294 306 307
225 208 198 211 225 235 249 268 200 227 246 211 190 214 184 191 227 227 241 239 242 247 253 248 223 224 230 232 187 221 224 228 234 229 225 214 142 127 115 111 112 120 137 145 147 159 161 167 178 190 202 168 168 170 168 171 183 187 181 174 187 199 195 203 202 209 212 210 215 219 232 232 233 235 234 236 244 242 246 249 261 254 263 290 312 312 313
232 187 188 226 238 251 260 263 251 244 244 207 156 206 199 198 218 234 233 243 241 237 242 245 236 233 219 231 220 209 218 225 231 231 178 152 152 133 129 120 99 79 98 147 173 169 170 176 182 200 199 167 169 168 169 178 189 188 187 182 194 197 204 194 196 202 207 216 222 228 232 235 230 229 240 247 245 243 245 250 248 258 275 285 288 285 299
205 167 200 215 230 235 231 242 248 251 253 240 204 210 214 196 219 237 244 243 242 239 248 239 235 241 216 220 229 220 233 252 177 153 134 139 139 150 148 156 159 184 191 189 172 171 173 182 196 215 162 148 167 164 169 182 181 161 169 193 202 209 208 205 206 200 206 216 222 219 229 226 228 228 239 241 244 243 244 243 251 264 263 269 273 276 275
270 216 209 231 226 229 241 250 256 256 248 241 221 224 221 202 214 228 239 244 238 232 240 243 235 233 231 210 158 137 137 118 104 108 119 120 135 142 161 146 51 72 114 134 154 169 177 177 214 222 128 154 165 168 169 176 168 172 199 191 192 207 214 216 219 221 199 205 210 216 220 219 229 223 237 238 240 243 242 241 252 250 251 262 269 264 273
243 267 265 249 249 242 249 245 230 245 244 235 227 230 232 223 221 231 235 239 249 243 228 234 235 229 182 140 142 135 121 107 92 106 131 140 134 133 122 74 76 82 80 86 129 162 178 195 216 147 149 160 158 155 171 177 181 197 205 201 206 205 203 219 215 214 225 221 223 224 221 224 226 226 228 234 236 234 235 240 247 253 256 257 258 266 268
221 228 238 246 239 230 230 244 229 233 247 242 237 235 237 233 224 230 239 243 246 254 239 236 220 155 148 159 154 146 137 129 163 180 174 155 148 129 96 82 78 79 76 71 52 89 172 200 159 136 144 156 168 165 183 193 196 203 206 200 206 207 216 218 221 216 214 226 226 222 219 225 227 224 229 234 236 233 239 244 244 247 259 261 262 260 271
227 241 247 257 264 241 220 229 235 222 226 241 245 233 231 233 228 231 238 241 242 242 234 124 137 143 143 142 153 164 178 194 182 144 155 155 147 128 105 92 69 58 43 38 172 220 215 217 206 194 173 176 182 194 194 202 199 202 205 204 204 211 216 214 213 219 223 232 221 223 231 230 236 233 234 230 231 234 241 243 243 248 248 262 270 267 271
224 245 258 256 257 252 233 235 237 232 224 228 238 242 234 231 231 236 238 235 191 114 125 130 130 130 140 157 167 174 176 134 110 127 130 132 126 118 106 107 109 85 14 324 296 242 233 224 221 201 189 199 206 207 202 199 205 205 209 199 211 216 215 218 223 233 234 229 230 229 230 232 232 233 231 231 235 235 235 243 247 245 247 255 261 275 279
223 228 252 253 256 260 247 251 287 288 261 262 275 293 292 264 219 252 37 83 98 120 127 132 131 148 161 146 118 103 96 105 111 118 103 106 114 114 119 125 138 150 113 263 295 55 12 229 226 222 208 200 207 209 208 199 198 204 202 201 207 210 215 221 225 223 236 232 232 236 239 238 240 240 237 231 237 236 233 239 243 244 247 250 256 261 274
246 217 242 260 299 13 50 31 13 43 71 82 60 51 332 151 96 95 85 73 74 104 116 115 125 116 109 100 90 94 96 92 103 108 117 123 131 121 129 154 184 147 169 213 220 147 267 149 111 160 203 211 215 219 217 213 204 186 196 199 203 210 217 220 228 230 233 234 235 234 234 235 238 244 243 240 237 234 237 236 238 244 251 253 253 254 256
330 33 47 49 66 69 82 41 33 39 29 255 152 53 50 91 97 93 83 68 42 64 97 101 109 109 112 110 107 95 86 91 103 110 110 104 88 116 180 216 189 182 196 186 164 262 271 314 310 97 184 215 227 225 221 227 210 185 192 197 206 209 221 220 225 232 235 235 231 235 237 239 237 239 243 237 232 235 234 234 239 241 245 252 252 255 255
0 36 19 26 58 49 75 57 46 37 22 43 121 134 137 110 102 100 99 83 46 55 99 119 115 113 113 111 117 116 119 108 108 108 110 108 84 65 330 290 248 239 250 260 260 261 267 275 281 270 260 256 225 224 231 225 229 202 198 202 212 215 219 224 226 235 242 236 239 241 236 236 236 239 242 240 239 235 235 239 244 247 251 254 251 255 259
42 43 36 64 78 64 77 88 65 44 43 47 50 58 59 98 112 97 87 85 59 57 61 91 111 103 115 127 123 125 125 110 102 118 129 103 78 58 51 321 286 243 233 198 194 224 247 249 203 228 258 256 268 247 241 243 239 229 217 213 211 213 222 223 226 232 237 237 234 237 238 238 243 244 243 244 243 241 242 240 241 243 240 248 257 258 254
14 68 79 79 81 95 101 107 109 79 52 41 38 50 54 66 97 111 115 106 86 74 75 60 78 108 111 105 105 101 87 74 81 108 126 138 142 128 93 281 87 51 49 138 316 316 320 315 289 256 245 243 243 249 246 242 228 224 219 216 214 216 219 226 232 240 238 237 239 243 242 238 235 243 245 244 247 246 243 240 244 247 243 241 250 252 255
14 56 73 78 78 86 99 101 95 102 87 48 40 42 59 75 92 91 85 77 78 77 72 74 77 81 90 99 102 100 96 68 89 248 306 280 241 215 199 246 274 277 313 300 254 250 261 265 265 260 256 252 238 239 240 226 199 204 212 216 220 219 222 226 234 241 242 240 244 241 239 239 235 240 242 240 243 245 241 241 244 249 247 244 246 253 254
30 56 79 97 93 88 87 92 96 87 81 52 25 42 61 62 62 82 89 88 81 81 97 91 86 91 99 107 103 109 129 159 200 198 134 332 360 242 228 249 275 291 302 289 291 273 272 264 259 259 267 262 256 239 212 205 202 199 208 214 224 224 228 234 242 238 239 239 239 240 238 237 237 237 236 243 245 246 239 244 247 247 253 255 253 253 258
32 46 61 76 87 87 84 86 94 96 97 97 60 52 51 60 55 58 83 87 90 86 86 96 106 109 124 130 117 131 164 187 175 163 101 43 74 61 229 217 255 277 278 281 289 292 290 283 273 269 265 256 244 241 224 218 213 214 215 216 219 223 226 232 235 237 235 238 240 241 237 238 236 238 237 242 240 245 246 244 247 244 244 253 255 254 255
56 48 57 67 61 59 62 84 91 101 102 88 74 53 36 45 59 57 64 90 90 79 82 106 128 144 152 172 171 189 218 230 236 232 220 192 161 206 189 201 229 235 266 279 269 277 274 272 274 272 269 267 259 248 233 228 223 224 224 223 221 225 231 236 239 241 238 237 240 238 237 241 238 239 238 239 241 246 252 249 253 253 243 247 252 251 256
62 60 57 71 72 70 81 85 93 95 92 86 83 73 31 44 69 75 69 79 110 121 99 89 142 186 157 163 151 89 40 13 2 196 223 257 272 271 258 273 286 295 316 312 297 280 279 281 280 274 267 261 257 240 231 228 228 231 232 232 230 229 234 235 238 240 240 242 240 239 240 236 238 242 243 244 245 245 247 248 252 254 251 249 250 254 259
77 85 83 91 104 103 91 87 85 81 84 109 127 134 167 139 114 117 140 128 127 140 139 180 232 251 259 245 233 216 184 133 79 41 175 205 236 225 265 278 265 278 295 308 299 295 292 293 292 285 272 263 253 239 223 224 222 227 232 234 233 236 234 239 240 238 243 241 242 241 245 244 243 241 240 240 247 244 245 245 252 258 252 247 252 254 258
57 75 77 71 77 82 90 95 99 99 113 131 118 147 174 137 110 82 66 58 57 54 40 25 347 297 250 221 205 197 224 249 191 175 200 182 204 242 254 261 293 300 302 285 286 291 286 286 289 289 282 276 252 239 225 222 222 225 226 233 235 237 237 236 239 236 236 242 240 239 242 245 246 238 246 244 246 247 246 247 249 248 254 254 260 260 254
58 51 48 41 45 41 34 57 69 82 95 73 84 109 250 123 74 40 41 46 56 61 51 13 360 331 189 214 214 215 193 204 245 261 244 237 239 240 261 272 266 267 263 261 270 278 282 287 284 282 279 271 260 245 233 231 226 232 235 237 237 241 235 238 240 235 236 241 243 241 245 246 247 248 248 250 252 252 250 250 253 251 246 252 257 260 259
77 84 87 86 86 82 61 88 126 134 127 117 134 216 104 84 105 108 75 77 50 56 29 348 11 351 344 259 208 187 201 208 231 242 243 260 247 261 256 254 256 259 263 267 268 281 286 282 274 265 264 260 254 252 243 241 241 241 240 243 242 247 249 244 242 244 243 238 239 244 245 247 246 250 251 251 255 257 255 255 254 255 253 253 252 257 259
95 99 94 98 85 78 81 79 79 88 102 106 111 95 89 108 106 90 75 77 87 105 77 56 40 281 198 280 309 320 186 196 211 243 251 255 267 268 276 268 265 270 271 271 274 266 262 264 271 277 269 263 256 255 258 254 251 253 249 248 251 252 252 252 248 249 250 246 244 250 250 248 249 254 256 254 251 254 256 253 254 256 257 258 256 256 260